Weather History for KRND - December, 2014

Change the Weather History Date:

Thursday, December 25, 2014

  Actual Average Record
Temperature  
Mean Temperature 47 °F -  
Max Temperature 63 °F 60 °F 70 °F (2008)
Min Temperature 31 °F 39 °F 26 °F (1998)
Degree Days  
Heating Degree Days 18    
Moisture  
Dew Point 32 °F    
Average Humidity 55    
Maximum Humidity 85    
Minimum Humidity 24    
Precipitation  
Precipitation 0.00 in - - ()
Sea Level Pressure  
Sea Level Pressure 30.05 in    
Wind  
Wind Speed 8 mph (South)    
Max Wind Speed 23 mph    
Max Gust Speed 31 mph    
Visibility 10 miles    
Events      
Averages and records for this station are not official NWS values.
T = Trace of Precipitation, MM = Missing Value Source: NWS Daily Summary

Daily Weather History Graph

Daily Weather History Graph

Search for Another Location

Airport or City:

Trip Planner

Search our weather history database for the weather conditions in past years. The results will help you decide how hot, cold, wet, or windy it might be!

Date:

Astronomy

Dec. 25, 2014 Rise Set
Actual Time 7:25 AM CST 5:41 PM CST
Civil Twilight 6:59 AM CST 6:07 PM CST
Nautical Twilight 6:29 AM CST 6:36 PM CST
Astronomical Twilight 6:00 AM CST 7:06 PM CST
Moon 10:15 AM CST (12/25) 9:58 PM CST (12/25)
Length of Visible Light 11h 07m
Length of Day
10h 15m
Waxing Crescent, 18% of the Moon is Illuminated
Dec 25
Waxing Crescent
Dec 28
First Quarter
Jan 4
Full
Jan 13
Last Quarter
Jan 20
New

Hourly Weather History & Observations

Time (CST) Temp. Windchill Dew Point Humidity Pressure Visibility Wind Dir Wind Speed Gust Speed Precip Events Conditions
12:58 AM 34.3 °F 31.4 °F 28.8 °F 80% 30.12 in 10.0 mi South 3.5 mph - N/A   Clear
1:58 AM 39.4 °F 36.1 °F 29.1 °F 67% 30.11 in 10.0 mi SSW 4.6 mph - N/A   Clear
2:58 AM 39.0 °F 35.7 °F 28.8 °F 67% 30.11 in 10.0 mi SW 4.6 mph - N/A   Clear
3:58 AM 37.9 °F 34.4 °F 27.0 °F 65% 30.10 in 10.0 mi SW 4.6 mph - N/A   Clear
4:58 AM 31.3 °F - 27.3 °F 85% 30.06 in 10.0 mi North 2.3 mph - N/A   Clear
5:58 AM 36.9 °F 34.3 °F 26.4 °F 66% 30.09 in 10.0 mi WSW 3.5 mph - N/A   Clear
6:58 AM 38.1 °F 32.9 °F 25.0 °F 59% 30.09 in 10.0 mi SSW 6.9 mph - N/A   Clear
7:58 AM 37.2 °F 33.6 °F 25.9 °F 64% 30.11 in 10.0 mi SSW 4.6 mph - N/A   Clear
8:58 AM 41.9 °F 38.2 °F 27.0 °F 55% 30.11 in 10.0 mi SSW 5.8 mph - N/A   Clear
9:58 AM 48.9 °F - 30.6 °F 49% 30.11 in 10.0 mi South 11.5 mph - N/A   Clear
10:58 AM 55.0 °F - 29.7 °F 38% 30.11 in 10.0 mi South 20.7 mph 24.2 mph N/A   Clear
11:58 AM 58.8 °F - 27.3 °F 30% 30.08 in 10.0 mi South 20.7 mph 25.3 mph N/A   Clear
12:58 PM 62.1 °F - 25.0 °F 24% 30.05 in 10.0 mi South 23.0 mph - N/A   Clear
1:58 PM 63.5 °F - 26.4 °F 25% 30.01 in 10.0 mi South 23.0 mph 31.1 mph N/A   Clear
2:58 PM 63.9 °F - 26.8 °F 25% 29.98 in 10.0 mi SSE 20.7 mph 26.5 mph N/A   Clear
3:58 PM 63.7 °F - 26.8 °F 25% 29.97 in 10.0 mi SSE 20.7 mph 28.8 mph N/A   Clear
4:58 PM 61.5 °F - 28.4 °F 29% 29.99 in 10.0 mi South 12.7 mph - N/A   Clear
5:58 PM 55.4 °F - 32.5 °F 42% 29.97 in 10.0 mi SSE 6.9 mph - N/A   Clear
6:58 PM 53.2 °F - 36.7 °F 53% 29.97 in 10.0 mi SE 9.2 mph - N/A   Clear
7:58 PM 52.2 °F - 40.3 °F 64% 29.99 in 10.0 mi SE 10.4 mph - N/A   Clear
8:58 PM 52.2 °F - 43.5 °F 72% 30.01 in 10.0 mi SSE 9.2 mph - N/A   Clear
9:58 PM 52.3 °F - 45.5 °F 78% 30.01 in 10.0 mi SSE 8.1 mph - N/A   Partly Cloudy
10:58 PM 55.0 °F - 47.3 °F 75% 29.99 in 10.0 mi SSE 11.5 mph - N/A   Overcast
11:58 PM 56.1 °F - 48.0 °F 74% 30.00 in 10.0 mi South 10.4 mph - N/A   Overcast